period_start,C,m1,H,J0,J1,J2,J3,J4,J5,JA,JB,JC,JD,JJ,JK,JN,#
2017-01-12 00:04:26,0.05,0.23,0.00,22.20,26.25,29.86,14.97,48.09,1044.45,2033.89,3485.47,3070.16,3480.58,599.90,614.09,3.02,0000 0000 0000 0000 000000
2017-01-12 00:09:27,0.05,0.23,0.00,22.18,26.27,29.87,14.90,47.99,1044.45,2033.82,3484.04,3069.20,3479.46,599.85,613.93,3.07,0000 0000 0000 0000 000000
2017-01-12 00:14:28,0.04,0.24,0.00,22.18,26.27,29.88,15.05,48.03,1044.47,2033.65,3482.56,3068.14,3478.25,599.82,613.89,3.12,0000 0000 0000 0000 000000
2017-01-12 00:19:29,0.06,0.24,0.00,22.21,26.29,29.90,15.03,48.08,1044.47,2033.51,3481.16,3067.21,3477.08,600.13,614.10,3.17,0000 0000 0000 0000 000000
2017-01-12 00:24:31,0.03,0.24,0.00,22.19,26.30,29.91,14.96,47.97,1044.48,2033.26,3479.75,3066.16,3475.87,600.10,614.02,3.22,0000 0000 0000 0000 000000
2017-01-12 00:29:32,0.05,0.24,0.00,22.21,26.30,29.93,14.95,48.02,1044.52,2033.07,3478.39,3065.12,3474.65,600.03,613.97,3.27,0000 0000 0000 0000 000000
2017-01-12 00:34:33,0.06,0.25,0.00,22.23,26.32,29.91,14.94,47.97,1044.48,2033.04,3476.89,3064.13,3473.47,599.85,613.93,3.32,0000 0000 0000 0000 000000
2017-01-12 00:39:34,0.06,0.25,0.00,22.23,26.32,29.94,14.98,47.98,1044.47,2033.01,3475.58,3063.11,3472.27,599.95,613.90,3.37,0000 0000 0000 0000 000000
2017-01-12 00:44:35,0.06,0.25,0.00,22.21,26.33,29.93,14.83,47.88,1044.48,2033.01,3474.24,3062.06,3471.08,599.65,613.61,3.42,0000 0000 0000 0000 000000
2017-01-12 00:49:37,0.06,0.26,0.00,22.23,26.35,29.95,14.92,48.00,1044.51,2033.00,3472.74,3061.09,3469.95,599.92,613.91,3.47,0000 0000 0000 0000 000000
2017-01-12 00:54:38,0.06,0.26,0.00,22.23,26.35,29.98,15.00,48.10,1044.68,2033.00,3471.45,3060.21,3468.87,600.23,614.36,3.52,0000 0000 0000 0000 000000
2017-01-12 00:59:39,0.05,0.26,0.00,22.24,26.35,29.96,14.93,47.98,1044.93,2033.00,3470.12,3059.29,3467.89,599.91,614.11,3.57,0000 0000 0000 0000 000000
2017-01-12 01:04:40,0.07,0.27,0.00,22.25,26.37,29.98,14.88,47.92,1044.94,2033.00,3468.70,3058.28,3466.74,599.76,614.04,3.62,0000 0000 0000 0000 000000
2017-01-12 01:09:42,0.06,0.27,0.00,22.23,26.37,29.99,15.01,48.03,1044.94,2033.00,3467.42,3057.30,3465.51,600.07,614.33,3.67,0000 0000 0000 0000 000000
2017-01-12 01:14:43,0.06,0.27,0.00,22.24,26.38,29.98,14.95,47.98,1044.94,2033.00,3466.01,3056.37,3464.39,599.97,614.16,3.72,0000 0000 0000 0000 000000
2017-01-12 01:19:44,0.06,0.28,0.00,22.25,26.40,30.00,14.92,47.91,1044.94,2032.99,3464.71,3055.53,3463.38,599.83,614.08,3.77,0000 0000 0000 0000 000000
2017-01-12 01:24:46,0.06,0.28,0.00,22.26,26.40,29.99,15.01,47.98,1044.94,2032.99,3463.37,3054.43,3462.19,600.12,614.34,3.82,0000 0000 0000 0000 000000
2017-01-12 01:29:47,0.05,0.28,0.00,22.23,26.41,30.00,15.03,48.00,1044.94,2032.98,3462.01,3053.50,3461.07,599.80,613.96,3.87,0000 0000 0000 0000 000000
2017-01-12 01:34:48,0.06,0.29,0.00,22.24,26.42,29.99,14.95,47.98,1044.98,2032.96,3460.56,3052.45,3459.89,599.45,613.80,3.92,0000 0000 0000 0000 000000
2017-01-12 01:39:50,0.06,0.29,0.00,22.24,26.42,30.00,14.93,47.96,1045.01,2032.97,3459.24,3051.53,3458.73,599.95,614.21,3.97,0000 0000 0000 0000 000000
2017-01-12 01:44:51,0.06,0.29,0.00,22.26,26.44,29.99,14.94,47.97,1044.96,2032.93,3457.81,3050.44,3457.45,599.83,614.02,4.02,0000 0000 0000 0000 000000
2017-01-12 01:49:52,0.05,0.29,0.00,22.26,26.45,30.02,14.97,48.04,1044.95,2032.89,3456.52,3049.54,3456.42,599.77,614.04,4.07,0000 0000 0000 0000 000000
2017-01-12 01:54:54,0.05,0.30,0.00,22.24,26.45,30.02,14.94,47.98,1044.94,2032.86,3455.36,3048.70,3455.47,599.96,614.25,4.12,0000 0000 0000 0000 000000
2017-01-12 01:59:55,0.03,0.30,0.00,22.26,26.46,30.02,14.90,47.97,1044.94,2032.63,3453.95,3047.81,3454.39,599.86,614.05,4.17,0000 0000 0000 0000 000000
2017-01-12 02:04:56,0.05,0.30,0.00,22.28,26.47,30.02,14.94,47.91,1044.94,2032.60,3452.65,3046.87,3453.39,600.06,614.02,4.22,0000 0000 0000 0000 000000
2017-01-12 02:09:58,0.04,0.31,0.00,22.27,26.47,30.01,14.98,47.91,1044.94,2032.53,3451.52,3046.01,3452.38,600.27,614.40,4.27,0000 0000 0000 0000 000000
2017-01-12 02:14:59,0.04,0.31,0.00,22.26,26.47,30.01,14.95,48.00,1044.94,2032.33,3450.26,3045.09,3451.33,600.03,614.17,4.32,0000 0000 0000 0000 000000
2017-01-12 02:20:00,0.03,0.31,0.00,22.28,26.47,30.02,14.93,47.95,1044.94,2032.19,3449.08,3044.19,3450.21,599.97,614.05,4.38,0000 0000 0000 0000 000000
2017-01-12 02:25:01,0.06,0.31,0.00,22.27,26.48,30.03,15.04,47.97,1044.96,2032.11,3447.83,3043.36,3449.21,599.96,614.18,4.43,0000 0000 0000 0000 000000
2017-01-12 02:30:02,0.05,0.31,0.00,22.28,26.49,30.02,14.93,47.89,1044.95,2032.09,3446.63,3042.56,3448.28,599.78,613.82,4.48,0000 0000 0000 0000 000000
2017-01-12 02:35:04,0.05,0.32,0.00,22.30,26.50,30.06,15.06,47.98,1044.96,2032.06,3445.40,3041.63,3447.26,599.92,613.95,4.53,0000 0000 0000 0000 000000
2017-01-12 02:40:05,0.05,0.32,0.00,22.28,26.50,30.00,15.00,48.06,1044.97,2032.02,3444.22,3040.72,3446.03,600.37,614.52,4.58,0000 0000 0000 0000 000000
2017-01-12 02:45:06,0.07,0.32,0.00,22.26,26.50,29.79,14.92,48.04,1044.94,2032.01,3442.76,3039.79,3444.85,599.72,613.77,4.63,0000 0000 0000 0000 000000
2017-01-12 02:50:07,0.16,0.33,0.00,22.29,26.50,30.02,14.98,48.08,1044.94,2032.03,3439.66,3037.91,3442.99,600.10,614.27,4.68,0000 0000 0000 0000 000000
2017-01-12 02:55:08,0.21,0.34,0.00,22.29,26.50,30.03,15.00,47.95,1044.94,2032.01,3434.46,3034.80,3439.60,599.95,613.95,4.73,0000 0000 0000 0000 000000
2017-01-12 03:00:10,0.32,0.35,0.00,22.29,26.52,30.04,14.96,47.95,1044.94,2032.02,3427.15,3030.44,3434.75,599.97,614.04,4.78,0000 0000 0000 0000 000000
2017-01-12 03:05:11,0.30,0.37,0.00,22.30,26.52,30.06,14.95,47.93,1044.94,2032.01,3419.43,3025.85,3429.42,600.12,614.18,4.83,0000 0000 0000 0000 000000
2017-01-12 03:10:12,0.14,0.38,0.00,22.29,26.52,30.06,14.89,48.02,1044.92,2032.00,3415.45,3023.43,3426.65,600.29,614.36,4.88,0000 0000 0000 0000 000000
2017-01-12 03:15:13,0.11,0.39,0.00,22.29,26.52,30.04,15.00,47.97,1044.80,2032.00,3412.91,3021.78,3424.83,600.18,614.09,4.93,0000 0000 0000 0000 000000
2017-01-12 03:20:15,0.09,0.39,0.00,22.32,26.52,30.03,15.02,47.93,1044.63,2032.00,3410.53,3020.39,3423.36,600.07,613.96,4.98,0000 0000 0000 0000 000000
2017-01-12 03:25:16,0.45,0.40,0.00,22.32,26.52,30.04,15.00,47.95,1044.75,2032.00,3402.59,3015.69,3418.05,600.20,614.20,5.03,0000 0000 0000 0000 000000
2017-01-12 03:30:17,0.60,0.43,0.00,22.31,26.53,30.05,14.97,47.93,1044.83,2032.00,3388.52,3007.51,3408.89,600.04,614.00,5.08,0000 0000 0000 0000 000000
2017-01-12 03:35:19,0.39,0.46,0.00,22.31,26.54,30.08,14.96,47.94,1044.88,2032.00,3377.24,3000.93,3401.35,599.89,613.96,5.13,0000 0000 0000 0000 000000
2017-01-12 03:40:20,0.26,0.47,0.00,22.31,26.55,30.07,15.00,47.90,1044.69,2032.00,3371.38,2997.38,3397.37,600.14,614.04,5.18,0000 0000 0000 0000 000000
2017-01-12 03:45:21,0.35,0.49,0.00,22.30,26.55,30.06,15.00,48.00,1044.67,2031.99,3362.92,2992.39,3391.89,599.98,613.90,5.23,0000 0000 0000 0000 000000
2017-01-12 03:50:23,0.27,0.50,0.00,22.32,26.55,30.08,14.96,48.02,1044.48,2031.99,3356.15,2988.31,3387.45,599.77,613.60,5.28,0000 0000 0000 0000 000000
2017-01-12 03:55:24,0.47,0.52,0.00,22.33,26.55,30.07,15.03,48.01,1044.46,2031.98,3346.64,2982.60,3381.16,600.07,613.82,5.33,0000 0000 0000 0000 000000
2017-01-12 04:00:26,0.61,0.55,0.00,22.31,26.55,30.08,14.92,48.23,1044.46,2031.97,3332.83,2974.23,3371.93,599.84,613.62,5.38,0000 0000 0000 0000 000000
2017-01-12 04:05:27,0.49,0.58,0.00,22.32,26.55,30.04,15.00,48.10,1044.45,2031.96,3320.53,2966.60,3363.49,599.92,613.83,5.43,0000 0000 0000 0000 000000
2017-01-12 04:10:28,0.40,0.60,0.00,22.32,26.56,30.09,15.03,48.03,1044.46,2031.95,3311.40,2960.98,3357.17,600.03,613.78,5.48,0000 0000 0000 0000 000000
2017-01-12 04:15:29,0.43,0.62,0.00,22.32,26.56,30.06,14.99,48.01,1044.54,2031.91,3301.35,2954.81,3350.35,599.99,613.80,5.53,0000 0000 0000 0000 000000
2017-01-12 04:20:30,0.47,0.64,0.00,22.33,26.57,30.05,14.90,47.92,1044.66,2031.85,3291.11,2948.49,3343.37,599.96,613.82,5.58,0000 0000 0000 0000 000000
2017-01-12 04:25:31,0.47,0.67,0.00,22.32,26.57,30.07,14.89,47.95,1044.70,2031.87,3280.34,2941.72,3335.92,599.99,613.90,5.63,0000 0000 0000 0000 000000
2017-01-12 04:30:33,0.48,0.69,0.00,22.31,26.57,30.05,14.97,47.95,1044.64,2031.81,3269.90,2934.94,3328.42,599.98,613.95,5.68,0000 0000 0000 0000 000000
2017-01-12 04:35:34,0.31,0.71,0.00,22.32,26.57,30.03,14.95,48.05,1044.70,2031.62,3261.87,2929.72,3322.77,600.04,613.99,5.73,0000 0000 0000 0000 000000
2017-01-12 04:40:36,0.22,0.73,0.00,22.32,26.57,30.06,14.96,47.96,1044.55,2031.42,3256.41,2926.11,3318.74,600.24,613.99,5.78,0000 0000 0000 0000 000000
2017-01-12 04:45:37,0.32,0.74,0.00,22.33,26.57,30.04,15.00,48.04,1044.45,2031.21,3249.30,2921.43,3313.52,600.47,614.14,5.83,0000 0000 0000 0000 000000
2017-01-12 04:50:38,0.25,0.75,0.00,22.34,26.57,30.07,15.03,48.10,1044.45,2031.13,3243.50,2917.64,3309.39,600.28,613.93,5.88,0000 0000 0000 0000 000000
2017-01-12 04:55:40,0.24,0.77,0.00,22.32,26.57,30.06,14.97,48.09,1044.46,2031.09,3238.36,2914.17,3305.47,600.05,613.81,5.93,0000 0000 0000 0000 000000
2017-01-12 05:00:41,0.36,0.78,0.00,22.29,26.57,30.08,15.02,47.95,1044.47,2031.06,3231.08,2909.41,3300.18,600.26,614.20,5.98,0000 0000 0000 0000 000000
2017-01-12 05:05:42,0.34,0.80,0.00,22.31,26.57,30.06,14.94,48.02,1044.49,2031.04,3223.40,2904.52,3294.88,599.93,613.75,6.03,0000 0000 0000 0000 000000
2017-01-12 05:10:44,0.33,0.82,0.00,22.32,26.57,30.01,14.99,47.98,1044.48,2031.04,3216.49,2899.96,3289.76,600.15,613.98,6.08,0000 0000 0000 0000 000000
2017-01-12 05:15:45,0.33,0.83,0.00,22.30,26.57,30.06,14.98,47.88,1044.52,2031.03,3209.55,2895.36,3284.44,600.10,613.99,6.13,0000 0000 0000 0000 000000
2017-01-12 05:20:46,0.45,0.85,0.00,22.32,26.57,30.05,14.93,47.98,1044.52,2031.01,3200.78,2889.58,3278.21,599.95,613.67,6.18,0000 0000 0000 0000 000000
2017-01-12 05:25:47,0.47,0.88,0.00,22.32,26.57,29.99,14.97,48.02,1044.47,2031.01,3190.95,2882.89,3270.89,599.67,613.62,6.23,0000 0000 0000 0000 000000
2017-01-12 05:30:48,0.36,0.90,0.00,22.31,26.57,30.03,14.96,48.02,1044.45,2031.00,3182.92,2877.71,3264.99,599.87,613.64,6.28,0000 0000 0000 0000 000000
2017-01-12 05:35:49,0.39,0.92,0.00,22.31,26.57,30.06,14.98,48.07,1044.45,2031.00,3174.74,2872.27,3259.20,600.41,614.13,6.33,0000 0000 0000 0000 000000
2017-01-12 05:40:51,0.29,0.94,0.00,22.30,26.57,30.04,15.00,48.06,1044.46,2031.01,3168.35,2868.04,3254.44,599.91,613.77,6.38,0000 0000 0000 0000 000000
2017-01-12 05:45:52,0.29,0.95,0.00,22.29,26.57,30.03,14.94,47.98,1044.48,2031.00,3162.30,2864.10,3250.12,600.24,614.15,6.43,0000 0000 0000 0000 000000
2017-01-12 05:50:53,0.30,0.96,0.00,22.29,26.57,30.02,14.95,48.01,1044.45,2031.01,3156.30,2860.12,3245.82,600.36,614.21,6.48,0000 0000 0000 0000 000000
2017-01-12 05:55:54,0.33,0.98,0.00,22.29,26.57,30.02,14.97,48.04,1044.46,2031.00,3149.55,2855.57,3240.76,599.89,613.67,6.53,0000 0000 0000 0000 000000
2017-01-12 06:00:56,0.44,1.00,0.00,22.30,26.57,30.02,15.00,48.16,1044.45,2031.00,3141.10,2849.86,3234.49,600.37,614.14,6.58,0000 0000 0000 0000 000000
2017-01-12 06:05:57,0.49,1.03,0.00,22.30,26.57,30.01,14.93,48.03,1044.45,2031.00,3131.89,2843.49,3227.53,599.70,613.49,6.63,0000 0000 0000 0000 000000
2017-01-12 06:10:58,0.52,1.05,0.00,22.30,26.57,30.04,14.98,48.00,1044.45,2031.00,3121.62,2836.38,3219.67,599.69,613.44,6.68,0000 0000 0000 0000 000000
2017-01-12 06:16:00,0.42,1.07,0.00,22.29,26.57,30.03,14.99,48.08,1044.45,2031.00,3112.56,2830.23,3212.83,600.08,613.91,6.74,0000 0000 0000 0000 000000
2017-01-12 06:21:01,0.28,1.09,0.00,22.28,26.57,30.00,15.02,48.17,1044.45,2031.00,3106.57,2826.23,3208.35,600.19,613.97,6.79,0000 0000 0000 0000 000000
2017-01-12 06:26:02,0.44,1.11,0.00,22.29,26.57,29.89,14.99,47.94,1044.45,2031.00,3098.93,2820.99,3202.57,600.19,614.02,6.84,0000 0000 0000 0000 000000
2017-01-12 06:31:03,0.45,1.13,0.00,22.26,26.56,29.96,15.01,48.02,1044.45,2031.00,3089.45,2814.69,3195.75,600.34,614.16,6.89,0000 0000 0000 0000 000000
2017-01-12 06:36:04,0.37,1.15,0.00,22.27,26.56,29.94,14.91,48.03,1044.45,2031.00,3081.95,2809.64,3190.20,599.73,613.63,6.94,0000 0000 0000 0000 000000
2017-01-12 06:41:06,0.37,1.17,0.00,22.28,26.55,30.01,14.97,48.07,1044.45,2031.00,3074.60,2804.60,3184.60,600.11,613.92,6.99,0000 0000 0000 0000 000000
2017-01-12 06:46:07,0.47,1.19,0.00,22.25,26.55,29.99,15.00,48.31,1044.44,2031.00,3066.11,2798.64,3177.94,599.70,613.69,7.04,0000 0000 0000 0000 000000
2017-01-12 06:51:09,0.50,1.22,0.00,22.25,26.55,29.92,15.02,48.19,1044.45,2030.99,3056.66,2792.07,3170.69,600.20,614.04,7.09,0000 0000 0000 0000 000000
2017-01-12 06:56:10,0.47,1.24,0.00,22.28,26.56,29.97,14.98,48.23,1044.44,2030.99,3047.21,2785.55,3163.53,599.86,613.62,7.14,0000 0000 0000 0000 000000
2017-01-12 07:01:12,0.56,1.27,0.00,22.27,26.57,29.99,14.99,48.04,1044.42,2030.99,3037.13,2778.51,3155.68,600.26,614.03,7.19,0000 0000 0000 0000 000000
2017-01-12 07:06:13,0.58,1.30,0.00,22.28,26.57,29.89,14.99,48.23,1044.43,2030.99,3025.94,2770.84,3147.36,600.28,614.15,7.24,0000 0000 0000 0000 000000
2017-01-12 07:11:14,0.61,1.33,0.00,22.27,26.57,29.96,14.97,48.21,1044.34,2030.99,3014.40,2762.99,3138.77,600.35,614.15,7.29,0000 0000 0000 0000 000000
2017-01-12 07:16:16,0.58,1.36,0.00,22.26,26.56,29.89,15.01,48.30,1044.32,2030.99,3003.41,2755.30,3130.52,600.34,614.13,7.34,0000 0000 0000 0000 000000
2017-01-12 07:21:17,0.59,1.39,0.00,22.25,26.56,29.82,14.97,48.22,1044.10,2030.99,2992.10,2747.78,3122.05,599.81,613.58,7.39,0000 0000 0000 0000 000000
2017-01-12 07:26:18,0.63,1.42,0.00,22.27,26.56,29.95,14.99,48.20,1044.03,2030.99,2980.14,2739.75,3113.26,600.09,613.63,7.44,0000 0000 0000 0000 000000
2017-01-12 07:31:19,0.60,1.45,0.87,22.25,26.56,29.99,14.96,48.10,1044.23,2030.98,2968.47,2731.92,3104.45,599.63,613.42,7.49,0000 0000 0000 0000 000000
2017-01-12 07:36:21,0.35,1.47,1.00,22.22,26.56,29.85,14.96,47.92,1044.43,2030.98,2960.92,2726.81,3098.70,600.11,614.06,7.54,0000 0000 0000 0000 000000
2017-01-12 07:41:22,0.39,1.49,1.00,22.23,26.56,29.93,14.93,48.05,1044.45,2030.97,2954.04,2722.16,3093.54,599.78,613.80,7.59,0000 0000 0000 0000 000000
2017-01-12 07:46:23,0.70,1.52,1.00,22.23,26.56,29.77,14.97,48.19,1044.44,2030.95,2941.89,2714.19,3084.97,599.75,613.69,7.64,0000 0000 0000 0000 000000
2017-01-12 07:51:24,0.87,1.56,1.00,22.22,26.55,29.93,14.96,48.17,1044.45,2030.92,2925.21,2703.73,3073.50,600.21,614.18,7.69,0000 0000 0000 0000 000000
2017-01-12 07:56:26,0.76,1.61,1.00,22.23,26.55,29.92,14.96,48.18,1044.45,2030.96,2910.34,2694.24,3063.08,599.97,613.92,7.74,0000 0000 0000 0000 000000
2017-01-12 08:01:27,0.82,1.64,1.00,22.24,26.55,29.95,14.94,48.17,1044.45,2030.97,2895.08,2684.72,3052.46,599.81,613.56,7.79,0000 0000 0000 0000 000000
2017-01-12 08:06:28,0.78,1.69,1.00,22.22,26.55,29.97,15.04,48.27,1044.38,2030.95,2879.92,2675.20,3041.85,600.05,613.99,7.84,0000 0000 0000 0000 000000
2017-01-12 08:11:29,0.71,1.72,1.00,22.22,26.55,29.90,14.93,48.21,1044.04,2030.82,2866.31,2666.65,3032.38,599.86,613.59,7.89,0000 0000 0000 0000 000000
2017-01-12 08:16:30,0.80,1.76,1.00,22.22,26.55,29.89,14.99,48.24,1043.99,2030.87,2851.25,2657.31,3022.16,599.97,613.60,7.94,0000 0000 0000 0000 000000
2017-01-12 08:21:32,0.81,1.80,1.00,22.22,26.55,29.83,14.90,48.18,1044.00,2030.89,2836.46,2647.97,3011.87,599.76,613.48,7.99,0000 0000 0000 0000 000000
2017-01-12 08:26:33,0.73,1.84,1.00,22.22,26.55,29.92,14.96,48.20,1044.13,2030.83,2822.39,2639.05,3002.06,599.48,613.10,8.04,0000 0000 0000 0000 000000
2017-01-12 08:31:35,0.49,1.87,1.00,22.22,26.55,29.91,15.03,48.24,1044.39,2030.52,2811.92,2632.19,2994.28,600.29,614.22,8.09,0000 0000 0000 0000 000000
2017-01-12 08:36:36,0.34,1.89,1.00,22.20,26.55,29.88,14.95,48.23,1044.21,2030.24,2805.00,2627.60,2989.14,599.77,613.69,8.14,0000 0000 0000 0000 000000
2017-01-12 08:41:37,0.38,1.91,1.00,22.22,26.55,29.89,15.00,48.17,1044.23,2030.24,2798.28,2623.32,2984.37,599.73,613.67,8.19,0000 0000 0000 0000 000000
2017-01-12 08:46:39,0.42,1.93,1.00,22.22,26.55,29.92,14.97,48.10,1044.14,2030.17,2790.69,2618.46,2978.85,599.77,613.62,8.24,0000 0000 0000 0000 000000
2017-01-12 08:51:40,0.54,1.95,1.00,22.21,26.54,29.95,14.97,48.21,1044.00,2030.10,2781.78,2612.70,2972.38,599.64,613.37,8.29,0000 0000 0000 0000 000000
2017-01-12 08:56:41,1.13,1.99,1.00,22.21,26.53,29.90,14.97,48.21,1044.00,2030.07,2764.51,2601.70,2960.33,599.94,613.60,8.34,0000 0000 0000 0000 000000
2017-01-12 09:01:43,2.68,2.10,1.00,22.22,26.52,29.94,14.97,48.16,1043.98,2030.08,2723.28,2574.48,2930.51,600.12,613.81,8.39,0000 0000 0000 0000 000000
2017-01-12 09:06:44,2.15,2.23,1.00,22.20,26.52,29.92,14.93,48.16,1043.97,2030.01,2681.59,2546.99,2899.96,599.56,613.28,8.44,0000 0000 0000 0000 000000
2017-01-12 09:11:45,1.62,2.31,1.00,22.20,26.52,29.82,14.93,48.24,1043.97,2030.00,2656.23,2530.08,2881.46,599.90,613.63,8.49,0000 0000 0000 0000 000000
2017-01-12 09:16:47,1.89,2.40,1.00,22.21,26.51,29.84,14.93,48.14,1043.96,2030.01,2626.16,2509.94,2859.47,599.93,613.78,8.54,0000 0000 0000 0000 000000
2017-01-12 09:21:48,1.93,2.50,1.00,22.20,26.50,29.88,14.94,48.17,1043.96,2030.00,2594.94,2488.98,2836.24,599.79,613.52,8.59,0000 0000 0000 0000 000000
2017-01-12 09:26:49,1.37,2.59,1.00,22.20,26.50,29.77,14.91,48.14,1043.96,2030.00,2570.58,2472.43,2817.98,599.69,613.44,8.64,0000 0000 0000 0000 000000
2017-01-12 09:31:51,0.73,2.63,1.97,22.18,26.50,29.82,14.91,48.13,1043.97,2030.01,2558.22,2463.98,2808.70,600.14,613.85,8.69,0000 0000 0000 0000 000000
2017-01-12 09:36:52,0.65,2.67,2.00,22.17,26.50,29.90,14.98,48.13,1043.97,2030.00,2548.19,2457.02,2800.99,600.09,613.84,8.74,0000 0000 0000 0000 000000
2017-01-12 09:41:53,0.90,2.71,2.00,22.17,26.48,29.88,14.95,48.17,1043.97,2030.00,2535.34,2448.38,2791.51,600.20,614.16,8.79,0000 0000 0000 0000 000000
2017-01-12 09:46:54,0.98,2.76,2.00,22.18,26.47,29.88,14.98,48.25,1043.96,2030.00,2520.48,2438.30,2780.35,600.08,613.93,8.84,0000 0000 0000 0000 000000
2017-01-12 09:51:56,1.11,2.81,2.00,22.18,26.47,29.85,15.01,48.17,1043.96,2030.00,2504.30,2427.39,2768.18,600.43,614.08,8.89,0000 0000 0000 0000 000000
2017-01-12 09:56:57,1.10,2.87,2.00,22.17,26.47,29.87,14.93,48.33,1043.93,2030.00,2487.47,2415.84,2755.50,599.73,613.54,8.94,0000 0000 0000 0000 000000
2017-01-12 10:01:58,1.09,2.92,1.00,22.19,26.47,29.82,14.97,48.31,1043.78,2030.00,2471.56,2405.05,2743.79,600.02,613.72,8.99,0000 0000 0000 0000 000000
2017-01-12 10:06:59,1.06,2.98,1.00,22.17,26.45,29.87,14.98,48.37,1043.54,2030.00,2455.29,2393.96,2731.64,600.01,613.59,9.04,0000 0000 0000 0000 000000
2017-01-12 10:12:00,1.28,3.03,1.00,22.17,26.45,29.86,14.96,48.23,1043.61,2030.00,2438.39,2382.21,2718.58,600.08,613.62,9.10,0000 0000 0000 0000 000000
2017-01-12 10:17:02,1.15,3.09,1.00,22.16,26.45,29.80,14.94,48.38,1043.76,2030.00,2421.22,2370.28,2705.38,599.89,613.57,9.15,0000 0000 0000 0000 000000
2017-01-12 10:22:03,0.90,3.15,1.00,22.15,26.45,29.84,14.95,48.38,1043.65,2030.00,2407.39,2360.94,2694.94,600.15,613.82,9.20,0000 0000 0000 0000 000000
2017-01-12 10:27:05,0.83,3.19,1.00,22.15,26.44,29.87,14.93,48.24,1043.50,2029.99,2396.09,2353.27,2686.44,599.94,613.49,9.25,0000 0000 0000 0000 000000
2017-01-12 10:32:06,1.00,3.24,1.00,22.15,26.43,29.84,14.95,48.33,1043.54,2029.99,2382.56,2343.72,2675.99,599.91,613.54,9.30,0000 0000 0000 0000 000000
2017-01-12 10:37:07,0.87,3.28,1.00,22.12,26.43,29.81,14.97,48.37,1043.51,2029.99,2370.18,2335.12,2666.43,599.86,613.67,9.35,0000 0000 0000 0000 000000
2017-01-12 10:42:08,0.84,3.32,1.00,22.12,26.42,29.82,14.97,48.42,1043.47,2029.99,2358.60,2327.15,2657.61,600.06,613.68,9.40,0000 0000 0000 0000 000000
2017-01-12 10:47:09,0.88,3.37,1.00,22.12,26.42,29.83,14.91,48.46,1043.47,2029.98,2346.57,2318.95,2648.50,599.75,613.36,9.45,0000 0000 0000 0000 000000
2017-01-12 10:52:11,0.91,3.41,1.00,22.10,26.42,29.85,15.00,48.46,1043.48,2029.98,2334.23,2310.44,2639.02,600.07,613.72,9.50,0000 0000 0000 0000 000000
2017-01-12 10:57:12,0.80,3.45,1.00,22.10,26.42,29.72,14.95,48.27,1043.50,2029.99,2323.09,2302.74,2630.34,599.87,613.66,9.55,0000 0000 0000 0000 000000
2017-01-12 11:02:13,0.78,3.50,1.00,22.11,26.42,29.81,14.98,48.39,1043.48,2029.95,2312.43,2295.35,2622.22,599.83,613.59,9.60,0000 0000 0000 0000 000000
2017-01-12 11:07:15,0.70,3.53,1.00,22.09,26.42,29.81,14.94,48.28,1043.48,2029.97,2302.98,2288.70,2614.97,599.85,613.55,9.65,0000 0000 0000 0000 000000
2017-01-12 11:12:16,0.83,3.57,1.00,22.10,26.42,29.72,14.97,48.38,1043.49,2029.97,2292.53,2281.35,2606.81,599.78,613.48,9.70,0000 0000 0000 0000 000000
2017-01-12 11:17:17,0.59,3.61,1.00,22.08,26.42,29.82,15.02,48.49,1043.49,2029.96,2283.80,2275.38,2600.25,600.21,613.83,9.75,0000 0000 0000 0000 000000
2017-01-12 11:22:18,0.52,3.63,1.00,22.06,26.40,29.72,14.95,48.43,1043.49,2029.97,2276.84,2270.59,2594.95,600.12,613.84,9.80,0000 0000 0000 0000 000000
2017-01-12 11:27:19,0.64,3.67,1.00,22.08,26.40,29.72,14.97,48.34,1043.50,2029.96,2268.91,2265.02,2588.65,600.27,613.93,9.85,0000 0000 0000 0000 000000
2017-01-12 11:32:20,0.53,3.69,1.00,22.07,26.40,29.65,15.01,48.36,1043.47,2029.95,2261.57,2260.06,2583.13,600.20,613.89,9.90,0000 0000 0000 0000 000000
2017-01-12 11:37:22,0.51,3.72,1.00,22.07,26.40,29.77,15.02,48.46,1043.41,2029.94,2254.88,2255.51,2578.12,600.10,613.78,9.95,0000 0000 0000 0000 000000
2017-01-12 11:42:23,0.51,3.75,1.00,22.04,26.39,29.77,15.02,48.52,1043.43,2029.94,2248.16,2250.97,2573.08,599.90,613.57,10.00,0000 0000 0000 0000 000000
2017-01-12 11:47:24,0.50,3.77,1.00,22.05,26.37,29.78,14.93,48.50,1043.25,2029.96,2241.69,2246.59,2568.19,599.74,613.36,10.05,0000 0000 0000 0000 000000
2017-01-12 11:52:26,0.51,3.80,1.00,22.04,26.37,29.78,15.00,48.49,1043.09,2029.98,2235.44,2242.18,2563.23,599.89,613.46,10.10,0000 0000 0000 0000 000000
2017-01-12 11:57:27,0.74,3.83,1.00,22.05,26.37,29.67,14.98,48.42,1043.16,2029.97,2226.66,2236.28,2556.62,599.87,613.47,10.15,0000 0000 0000 0000 000000
2017-01-12 12:02:28,0.81,3.87,1.00,22.06,26.36,29.63,14.93,48.47,1043.06,2029.97,2216.39,2229.13,2548.75,599.99,613.48,10.20,0000 0000 0000 0000 000000
2017-01-12 12:07:30,0.80,3.91,1.00,22.04,26.35,29.62,15.03,48.41,1043.03,2029.98,2206.41,2222.19,2541.06,600.17,613.68,10.25,0000 0000 0000 0000 000000
2017-01-12 12:12:32,0.88,3.95,1.00,22.04,26.35,29.71,14.96,48.48,1042.99,2029.97,2195.71,2214.64,2532.55,599.91,613.34,10.30,0000 0000 0000 0000 000000
2017-01-12 12:17:33,0.86,4.00,1.00,22.03,26.34,29.72,14.91,48.47,1042.99,2029.92,2185.04,2207.08,2524.20,600.00,613.52,10.35,0000 0000 0000 0000 000000
2017-01-12 12:22:34,0.65,4.04,1.00,22.02,26.33,29.60,14.91,48.42,1042.99,2029.96,2176.27,2200.92,2517.44,600.02,613.59,10.40,0000 0000 0000 0000 000000
2017-01-12 12:27:36,0.62,4.07,1.00,22.01,26.32,29.67,15.02,48.48,1042.99,2029.96,2169.26,2195.94,2511.88,600.10,613.68,10.45,0000 0000 0000 0000 000000
2017-01-12 12:32:37,0.55,4.10,1.00,22.01,26.32,29.60,14.97,48.52,1042.88,2029.96,2161.89,2190.86,2506.19,600.02,613.57,10.50,0000 0000 0000 0000 000000
2017-01-12 12:37:38,0.43,4.12,1.00,21.99,26.32,29.62,14.91,48.66,1042.58,2029.97,2156.46,2187.18,2502.14,599.81,613.28,10.55,0000 0000 0000 0000 000000
2017-01-12 12:42:39,0.40,4.14,1.00,22.00,26.32,29.64,14.96,48.63,1042.53,2029.97,2151.49,2183.74,2498.27,599.46,612.72,10.60,0000 0000 0000 0000 000000
2017-01-12 12:47:41,0.37,4.16,1.00,22.00,26.31,29.60,14.95,48.56,1042.60,2029.96,2146.79,2180.55,2494.77,599.80,613.12,10.65,0000 0000 0000 0000 000000
2017-01-12 12:52:42,0.40,4.18,1.00,21.99,26.30,29.60,15.02,48.63,1042.83,2029.96,2142.08,2177.32,2491.18,599.92,613.37,10.70,0000 0000 0000 0000 000000
2017-01-12 12:57:43,0.43,4.20,0.83,22.00,26.30,29.68,15.00,48.68,1042.89,2029.97,2136.99,2173.81,2487.14,600.00,613.67,10.75,0000 0000 0000 0000 000000
2017-01-12 13:02:45,0.52,4.22,0.00,22.00,26.30,29.66,15.03,48.74,1042.75,2029.98,2131.03,2169.69,2482.46,600.59,614.02,10.80,0000 0000 0000 0000 000000